WB0RXX Weather Reports


Display with metric or nautical units.
time (UTC)temp
F
wind
direction
speed
MPH
gust
MPH
rain 1hr
in
rain 24hr
in
rain mn
in
humidity
%
barometer
mb
20260509090005 52 9 0.0 0.0 0.00 0.00 0.00 77 1005.6
20260509085004 51 5 0.0 1.0 0.00 0.00 0.00 72 1005.6
20260509084004 51 5 1.0 1.0 0.00 0.00 0.00 71 1005.4
20260509083004 51 355 2.0 3.0 0.00 0.00 0.00 69 1005.3
20260509082003 51 4 5.0 8.0 0.00 0.00 0.00 67 1005.4
20260509081004 51 342 1.0 3.0 0.00 0.00 0.00 63 1005.4
20260509080003 51 350 2.0 2.0 0.00 0.00 0.00 59 1005.4
20260509075003 51 5 2.0 4.0 0.00 0.00 0.00 58 1005.0
20260509074003 51 347 2.0 6.0 0.00 0.00 0.00 57 1004.5
20260509073004 51 345 3.0 6.0 0.00 0.00 0.00 57 1004.2
20260509072003 50 348 4.0 8.0 0.00 0.00 0.00 56 1003.9
20260509071004 50 355 0.0 0.0 0.00 0.00 0.00 56 1003.7
20260509070005 50 355 2.0 4.0 0.00 0.00 0.00 55 1003.7
20260509065005 49 25 5.0 9.0 0.00 0.00 0.00 56 1003.8
20260509064018 50 212 0.0 0.0 0.00 0.00 0.00 55 1003.0
20260509063003 50 212 0.0 0.0 0.00 0.00 0.00 56 1003.3
20260509062020 50 212 0.0 0.0 0.00 0.00 0.00 54 1003.5
20260509061003 50 212 0.0 0.0 0.00 0.00 0.00 55 1003.5
20260509060004 50 212 0.0 0.0 0.00 0.00 0.00 55 1003.6
20260509055003 51 212 0.0 0.0 0.00 0.00 0.00 54 1003.5
20260509054004 51 212 0.0 0.0 0.00 0.00 0.00 54 1003.6
20260509053018 52 212 0.0 2.0 0.00 0.00 0.00 52 1003.6
20260509052004 52 213 0.0 0.0 0.00 0.00 0.00 52 1003.7
20260509051003 53 212 0.0 1.0 0.00 0.00 0.00 51 1003.9
20260509050008 53 235 1.0 2.0 0.00 0.00 0.00 51 1003.9
20260509045005 53 236 1.0 2.0 0.00 0.00 0.00 51 1004.0
20260509044003 53 360 0.0 0.0 0.00 0.00 0.00 50 1004.3
20260509043004 54 360 0.0 0.0 0.00 0.00 0.00 50 1004.5
20260509042003 55 360 0.0 0.0 0.00 0.00 0.00 48 1004.5
20260509041002 55 360 0.0 0.0 0.00 0.00 0.00 47 1004.5
20260509040004 56 360 0.0 0.0 0.00 0.00 0.00 46 1004.7
20260509035004 56 360 0.0 0.0 0.00 0.00 0.00 45 1004.8
20260509034005 56 360 0.0 0.0 0.00 0.00 0.00 45 1005.0
20260509033003 57 360 0.0 0.0 0.00 0.00 0.00 43 1005.0
20260509032005 58 360 0.0 0.0 0.00 0.00 0.00 42 1005.1
20260509031004 58 360 0.0 0.0 0.00 0.00 0.00 41 1005.0
20260509030003 59 360 0.0 0.0 0.00 0.00 0.00 41 1005.1
20260509025002 59 360 0.0 0.0 0.00 0.00 0.00 40 1005.1
20260509024003 60 360 0.0 0.0 0.00 0.00 0.00 38 1005.0
20260509023005 61 360 0.0 0.0 0.00 0.00 0.00 38 1005.2
20260509022003 61 360 0.0 0.0 0.00 0.00 0.00 37 1005.0
20260509021004 62 360 0.0 0.0 0.00 0.00 0.00 36 1005.0
20260509020004 63 360 0.0 1.0 0.00 0.00 0.00 35 1005.1
20260509015003 63 360 0.0 1.0 0.00 0.00 0.00 34 1005.1
20260509014004 64 5 1.0 1.0 0.00 0.00 0.00 33 1005.0
20260509013003 64 355 2.0 3.0 0.00 0.00 0.00 32 1005.1
20260509012003 65 350 1.0 3.0 0.00 0.00 0.00 32 1005.1
20260509011003 66 348 4.0 6.0 0.00 0.00 0.00 31 1005.0
20260509010003 66 333 4.0 4.0 0.00 0.00 0.00 30 1004.9
20260509005004 67 350 6.0 11.0 0.00 0.00 0.00 30 1004.8
20260509004019 67 339 5.0 11.0 0.00 0.00 0.00 30 1004.8
20260509003003 68 323 5.0 9.0 0.00 0.00 0.00 29 1004.8
20260509002003 68 324 4.0 10.0 0.00 0.00 0.00 29 1004.6
20260509001019 68 322 7.0 11.0 0.00 0.00 0.00 29 1004.5
20260509000003 69 320 6.0 14.0 0.00 0.00 0.00 29 1004.4
20260508235003 69 355 1.0 1.0 0.00 0.00 0.00 29 1004.4
20260508234003 69 333 8.0 15.0 0.00 0.00 0.00 27 1004.4
20260508233002 70 318 6.0 9.0 0.00 0.00 0.00 25 1004.5
20260508232002 70 332 5.0 8.0 0.00 0.00 0.00 26 1004.4
20260508231005 71 308 6.0 10.0 0.00 0.00 0.00 25 1004.5
20260508230005 72 340 6.0 5.0 0.00 0.00 0.00 24 1004.4
20260508225004 72 298 4.0 7.0 0.00 0.00 0.00 24 1004.3
20260508224005 72 312 7.0 15.0 0.00 0.00 0.00 24 1004.2
20260508223004 72 317 6.0 10.0 0.00 0.00 0.00 24 1004.2
20260508222003 73 325 7.0 19.0 0.00 0.00 0.00 25 1004.2
20260508221003 72 312 7.0 11.0 0.00 0.00 0.00 25 1004.0
20260508220005 72 318 7.0 12.0 0.00 0.00 0.00 24 1003.8
20260508215004 72 294 4.0 11.0 0.00 0.00 0.00 26 1003.8
20260508214004 72 293 5.0 11.0 0.00 0.00 0.00 27 1003.8
20260508213005 72 327 7.0 10.0 0.00 0.00 0.00 27 1003.8
20260508212019 72 312 7.0 9.0 0.00 0.00 0.00 27 1003.7
20260508211003 71 305 5.0 12.0 0.00 0.00 0.00 28 1003.8
20260508210004 72 312 6.0 12.0 0.00 0.00 0.00 29 1003.8
20260508205003 73 338 5.0 12.0 0.00 0.00 0.00 27 1004.0
20260508204005 73 303 5.0 11.0 0.00 0.00 0.00 26 1004.0
20260508203004 72 331 1.0 3.0 0.00 0.00 0.00 28 1004.2
20260508202004 73 333 3.0 6.0 0.00 0.00 0.00 27 1004.2
20260508201004 72 316 7.0 8.0 0.00 0.00 0.00 27 1004.3
20260508200004 73 345 5.0 12.0 0.00 0.00 0.00 27 1004.4
20260508195005 72 325 5.0 14.0 0.00 0.00 0.00 27 1004.4
20260508194004 72 310 3.0 5.0 0.00 0.00 0.00 29 1004.3
20260508193003 72 298 6.0 9.0 0.00 0.00 0.00 28 1004.6
20260508192005 72 309 4.0 15.0 0.00 0.00 0.00 29 1004.6
20260508191018 71 328 5.0 9.0 0.00 0.00 0.00 30 1004.7
20260508190004 70 289 6.0 13.0 0.00 0.00 0.00 30 1004.9
20260508185003 70 300 6.0 11.0 0.00 0.00 0.00 31 1004.8
20260508184004 70 304 6.0 8.0 0.00 0.00 0.00 30 1004.9
20260508183004 71 277 3.0 9.0 0.00 0.00 0.00 32 1005.0
20260508182004 71 296 5.0 7.0 0.00 0.00 0.00 29 1005.0
20260508181003 70 310 5.0 11.0 0.00 0.00 0.00 29 1005.2
20260508180004 70 301 7.0 12.0 0.00 0.00 0.00 29 1005.3
20260508175003 70 278 3.0 5.0 0.00 0.00 0.00 28 1005.4
20260508174002 70 46 2.0 1.0 0.00 0.00 0.00 28 1005.5
20260508173003 70 295 6.0 10.0 0.00 0.00 0.00 27 1005.9
20260508172003 70 319 4.0 10.0 0.00 0.00 0.00 25 1005.8
20260508171005 70 291 3.0 11.0 0.00 0.00 0.00 26 1005.9
20260508170005 70 288 3.0 7.0 0.00 0.00 0.00 25 1006.0
20260508165003 70 303 0.0 1.0 0.00 0.00 0.00 26 1006.3
20260508164004 69 234 2.0 3.0 0.00 0.00 0.00 29 1006.5
20260508163003 68 230 0.0 3.0 0.00 0.00 0.00 31 1006.5
20260508162005 68 295 1.0 3.0 0.00 0.00 0.00 28 1006.6
20260508161003 67 320 1.0 3.0 0.00 0.00 0.00 30 1006.8
20260508160019 66 17 0.0 1.0 0.00 0.00 0.00 33 1006.8
20260508155019 65 338 2.0 3.0 0.00 0.00 0.00 34 1006.9
20260508154004 64 235 3.0 5.0 0.00 0.00 0.00 33 1007.0
20260508153004 63 321 1.0 3.0 0.00 0.00 0.00 36 1007.2
20260508152003 62 346 2.0 4.0 0.00 0.00 0.00 35 1007.5
20260508151004 61 295 0.0 1.0 0.00 0.00 0.00 38 1007.6
20260508150004 59 300 0.0 0.0 0.00 0.00 0.00 40 1007.8
20260508145005 58 300 2.0 2.0 0.00 0.00 0.00 41 1007.9
20260508144002 57 262 0.0 3.0 0.00 0.00 0.00 42 1008.0
20260508143002 56 333 1.0 2.0 0.00 0.00 0.00 42 1008.1
20260508142003 55 276 0.0 2.0 0.00 0.00 0.00 45 1008.2
20260508141018 54 262 1.0 1.0 0.00 0.00 0.00 46 1008.3
20260508140004 53 350 2.0 3.0 0.00 0.00 0.00 46 1008.3
20260508135003 52 350 0.0 0.0 0.00 0.00 0.00 48 1008.3
20260508134019 51 346 0.0 1.0 0.00 0.00 0.00 50 1008.4
20260508133004 50 355 0.0 0.0 0.00 0.00 0.00 52 1008.5
20260508132019 49 304 2.0 7.0 0.00 0.00 0.00 52 1008.5
20260508131003 49 346 0.0 0.0 0.00 0.00 0.00 51 1008.5
20260508130003 48 223 1.0 2.0 0.00 0.00 0.00 52 1008.3
20260508125004 47 223 0.0 0.0 0.00 0.00 0.00 54 1008.4
20260508124005 46 223 0.0 0.0 0.00 0.00 0.00 53 1008.4
20260508123003 46 223 0.0 0.0 0.00 0.00 0.00 54 1008.3
20260508122005 45 223 0.0 0.0 0.00 0.00 0.00 54 1008.2
20260508121018 45 223 0.0 0.0 0.00 0.00 0.00 53 1008.3
20260508120004 44 223 0.0 0.0 0.00 0.00 0.00 54 1008.1
20260508115003 44 223 0.0 0.0 0.00 0.00 0.00 54 1008.2
20260508114004 44 223 0.0 0.0 0.00 0.00 0.00 54 1008.2
20260508113005 44 223 1.0 2.0 0.00 0.00 0.00 54 1008.3
20260508112003 43 208 0.0 2.0 0.00 0.00 0.00 55 1008.2
20260508111004 42 208 0.0 0.0 0.00 0.00 0.00 56 1008.2
20260508110005 43 208 0.0 0.0 0.00 0.00 0.00 55 1008.2
20260508105004 43 208 0.0 0.0 0.00 0.00 0.00 55 1008.2
20260508104005 43 208 0.0 0.0 0.00 0.00 0.00 55 1008.2
20260508103003 43 208 0.0 0.0 0.00 0.00 0.00 54 1008.3
20260508102020 44 208 0.0 0.0 0.00 0.00 0.00 54 1008.4
20260508101003 44 208 0.0 0.0 0.00 0.00 0.00 54 1008.4
20260508100004 44 208 0.0 0.0 0.00 0.00 0.00 53 1008.4
20260508095004 44 208 0.0 0.0 0.00 0.00 0.00 53 1008.4
20260508094004 44 208 0.0 0.0 0.00 0.00 0.00 53 1008.4
20260508093019 44 208 0.0 0.0 0.00 0.00 0.00 53 1008.5
20260508092003 44 209 0.0 1.0 0.00 0.00 0.00 52 1008.3
20260508091004 44 210 0.0 0.0 0.00 0.00 0.00 52 1008.4